Theta_e
355 353 353 346 328 329 321 322 327 325 327 334 335 331 331 331 328 320 343 348 345 349 357 359 362 364 364 365 367 366 364 363 363 362 362 363 361 361 361 360 361 360 360 359 359 358 358 357 357
355 354 349 340 326 316 318 326 324 329 334 337 336 334 332 327 338 338 345 351 347 354 355 359 362 365 365 365 366 365 363 363 363 363 362 362 361 361 360 361 360 360 360 358 359 358 358 356 355
356 352 337 332 328 319 319 326 329 333 336 334 333 338 335 331 341 340 347 350 354 354 356 361 361 364 364 364 365 366 365 363 363 362 362 362 361 360 360 359 360 359 360 360 359 358 357 357 356
347 345 339 329 320 325 325 329 333 333 335 336 336 332 339 344 343 346 352 352 353 354 357 360 363 363 364 363 363 363 363 363 364 362 362 361 360 360 360 361 361 360 358 358 358 358 357 356 355
350 342 329 324 322 327 331 333 334 331 332 334 335 329 333 342 348 349 350 351 351 353 357 359 365 365 364 363 363 363 363 364 363 362 360 360 360 361 360 362 360 361 359 358 357 357 357 356 355
340 337 324 319 319 326 333 336 334 332 333 334 333 333 334 346 347 348 351 350 351 351 354 358 363 364 364 364 363 363 363 362 362 362 360 360 360 360 359 359 360 361 359 358 356 356 355 356 357
336 329 322 320 320 323 330 337 332 332 333 332 338 332 338 342 347 350 350 350 350 351 353 356 358 362 363 364 363 362 362 361 361 361 361 360 359 358 358 357 358 358 358 357 356 356 356 356 358
337 331 322 322 320 322 333 335 337 332 332 340 340 331 333 341 348 350 350 349 349 351 352 355 358 358 360 362 362 362 362 362 361 361 361 360 359 358 359 359 358 358 356 356 356 356 356 357 358
339 326 321 320 321 327 336 333 337 338 335 336 338 338 343 347 349 348 346 346 347 349 351 351 353 357 358 358 359 361 361 361 362 361 360 359 362 363 360 358 359 357 356 355 356 355 357 359 360
332 325 322 327 327 328 334 334 334 332 333 333 336 341 345 345 346 345 345 345 347 348 349 350 352 354 357 353 360 360 356 356 358 361 362 362 364 366 361 360 358 359 356 356 355 355 354 357 355
330 324 327 327 329 332 334 334 337 331 328 333 334 338 342 343 344 344 345 347 348 349 348 349 352 355 355 354 356 356 354 356 359 364 363 365 365 365 365 362 360 362 358 360 357 359 358 354 355
325 328 330 329 328 329 332 336 334 333 331 337 340 341 342 341 342 343 344 346 348 349 350 351 354 356 356 354 353 354 350 353 354 356 363 363 359 363 366 361 362 363 358 361 362 361 358 358 356
327 325 328 330 329 327 332 332 332 334 336 338 342 341 341 342 343 345 346 347 348 348 350 352 355 358 358 358 354 352 352 350 352 355 358 359 359 364 363 364 361 362 363 361 360 361 358 357 352
326 326 325 327 327 326 327 330 334 336 339 337 339 339 341 341 343 345 345 345 347 348 349 352 354 357 358 358 360 357 355 352 353 353 355 360 359 365 360 359 361 362 362 361 360 358 357 355 355
324 317 318 319 323 321 329 325 329 337 339 338 337 339 340 342 344 344 346 346 347 348 350 352 355 356 359 360 360 359 353 352 351 351 357 359 360 362 367 362 358 362 363 363 359 361 358 354 352
314 315 311 319 321 322 325 318 331 338 338 337 337 338 338 341 342 344 345 346 348 349 351 354 353 355 359 360 360 356 353 351 350 350 354 358 361 365 366 360 362 363 363 358 362 361 354 350 343
311 308 311 316 320 321 323 319 328 338 337 336 338 337 337 339 341 344 346 347 348 351 352 354 355 353 356 360 359 358 357 353 350 352 355 360 362 365 366 360 363 370 365 360 360 360 356 352 350
307 308 312 313 318 321 321 321 325 333 335 336 337 337 338 338 339 343 346 348 349 351 353 355 355 357 359 357 359 355 352 351 350 352 354 359 362 366 367 362 365 366 362 360 360 360 356 352 348
311 310 310 315 319 317 318 320 323 327 332 332 336 337 338 338 341 344 346 347 348 351 352 354 355 361 357 354 352 350 347 349 349 352 359 365 367 368 369 366 365 363 362 361 360 357 355 348 350
309 308 309 315 316 315 316 316 321 324 328 332 335 337 338 339 340 342 345 346 347 350 353 356 357 360 360 356 356 352 350 349 350 355 363 367 367 369 367 367 362 365 360 364 363 360 351 351 350
307 307 309 310 314 315 314 313 316 320 325 330 334 338 339 339 339 341 342 344 346 349 352 356 360 361 362 363 357 356 353 353 351 356 359 364 366 367 369 367 366 365 363 357 361 360 356 346 344
304 309 309 309 309 306 314 306 316 319 322 327 330 335 338 340 341 341 342 343 345 348 354 357 361 363 362 364 360 362 350 346 350 356 357 360 366 365 365 368 367 368 361 363 361 359 357 354 339
305 310 308 308 307 308 309 307 312 319 318 324 329 333 337 340 341 341 342 343 345 349 351 356 360 364 366 364 365 357 357 349 353 355 366 369 369 367 364 366 367 367 364 365 365 361 360 353 342
310 308 308 307 306 300 307 308 309 313 318 322 328 332 336 339 341 343 345 344 346 348 351 355 361 367 367 365 362 367 363 358 354 358 356 356 358 359 366 364 366 367 366 366 365 364 362 357 350
308 305 298 297 298 298 309 306 310 316 319 323 325 330 335 339 341 342 344 345 345 347 350 354 363 366 366 363 364 364 366 365 366 364 357 361 354 355 364 366 365 365 369 367 367 365 361 359 353
306 305 300 294 296 299 307 302 308 318 320 322 326 328 335 338 341 342 344 346 347 347 353 356 362 363 362 363 367 369 370 359 359 364 358 356 355 355 363 363 365 367 367 367 368 362 359 359 356
306 303 308 302 304 300 304 307 313 316 318 320 321 324 328 335 339 341 344 346 348 350 355 359 362 365 366 363 368 369 368 367 360 368 369 360 367 357 361 362 365 366 366 368 367 361 359 358 358
309 310 301 303 296 295 301 303 305 311 314 318 319 323 327 332 338 340 342 345 347 350 354 358 363 365 365 362 365 364 367 369 369 369 369 369 368 366 362 363 363 365 366 368 367 362 361 359 355
306 305 306 306 303 298 297 302 313 313 317 317 320 324 328 332 336 340 342 344 347 349 350 354 358 362 362 363 365 366 366 365 367 365 369 370 370 372 367 367 364 363 365 367 366 364 360 358 357
310 307 307 301 301 303 303 304 313 314 316 320 321 324 328 331 334 337 339 343 345 347 349 350 353 355 358 362 366 366 368 367 365 367 368 370 371 371 371 370 366 363 364 366 365 362 359 357 355
Wind_Speed
14 12 6 6 4 6 5 6 5 8 7 3 7 3 11 11 7 6 9 15 17 15 13 14 14 15 16 16 16 16 16 15 14 13 12 11 10 10 10 11 11 9 11 9 8 7 7 6 6
13 13 5 3 7 3 8 4 6 6 9 11 10 8 8 7 8 12 14 22 19 16 15 15 13 15 16 16 15 15 15 14 13 12 11 11 10 10 9 11 9 9 9 9 8 8 7 6 6
13 11 5 6 2 5 8 3 8 8 8 6 6 7 6 6 15 8 17 25 19 16 14 16 15 16 16 15 15 13 13 13 12 11 10 10 10 9 9 7 8 10 9 8 7 6 6 6 5
6 5 6 10 9 8 7 4 10 9 7 4 9 10 9 7 15 14 26 22 18 17 17 17 16 16 16 15 14 14 13 12 11 10 10 9 8 8 6 6 9 9 8 7 6 5 5 5 4
4 5 5 6 8 4 4 6 8 6 7 8 4 8 10 12 14 25 22 19 19 17 18 16 15 14 15 14 14 13 12 11 11 10 9 7 7 7 6 7 8 8 7 6 5 5 5 4 5
6 4 8 3 8 5 8 8 6 4 7 8 9 15 6 14 22 21 21 19 19 17 18 18 15 14 13 14 13 11 11 11 9 8 7 7 7 6 5 5 6 7 6 6 5 5 4 5 5
8 6 2 2 6 7 8 8 4 6 8 7 15 12 12 19 20 21 19 17 17 17 17 16 16 14 12 12 12 10 10 10 8 7 6 6 5 4 3 3 3 4 4 4 4 4 4 4 6
6 6 6 4 3 11 9 7 6 6 9 14 11 8 16 22 22 21 19 17 15 17 16 15 14 13 12 12 10 9 9 8 7 6 6 5 5 3 3 4 4 1 2 2 3 4 4 4 5
3 8 4 6 4 10 12 8 6 7 13 7 8 7 23 26 23 21 18 17 14 16 16 16 15 13 11 10 10 9 8 7 6 7 5 9 5 4 5 8 3 2 2 2 3 4 4 6 8
10 10 5 5 4 3 13 8 10 8 14 13 9 17 25 26 22 22 21 19 19 18 17 15 15 14 11 9 10 8 8 9 7 5 5 4 4 3 6 2 3 5 2 1 1 0 4 10 6
10 11 3 6 8 2 12 10 9 8 13 17 16 22 27 26 22 21 20 20 20 19 15 16 14 13 12 8 7 5 5 4 5 5 5 2 1 2 1 2 5 5 4 2 6 5 2 3 3
10 10 7 3 3 1 7 10 11 10 4 14 17 23 27 27 24 23 21 20 19 19 17 16 14 11 11 7 7 6 5 5 5 6 5 2 4 3 1 2 2 3 3 1 1 2 5 4 4
16 8 6 8 7 4 6 10 9 13 8 14 19 23 26 24 23 21 20 19 19 18 17 16 15 13 11 9 7 6 5 6 6 4 6 3 3 1 3 2 4 2 2 1 2 2 0 1 4
9 14 8 9 9 7 8 9 12 11 12 15 20 24 25 25 24 21 20 19 19 18 18 16 16 14 12 10 8 6 6 5 5 5 4 5 4 1 2 4 2 2 4 4 1 3 1 3 3
14 10 11 11 12 6 8 10 13 11 16 18 20 21 23 24 23 22 21 19 19 17 17 17 16 15 14 12 11 8 7 7 6 6 6 6 5 5 4 2 5 2 2 1 4 1 2 4 2
16 17 15 15 16 12 13 11 17 16 20 20 22 21 22 24 24 22 21 20 19 18 18 17 15 16 15 12 10 8 8 7 7 6 6 7 7 6 5 4 2 6 2 4 2 3 2 3 4
15 15 19 14 11 10 16 11 14 19 19 19 20 22 21 22 24 23 22 20 19 19 18 18 17 16 16 13 10 10 9 8 7 7 6 6 7 7 7 5 2 2 3 2 0 1 4 3 2
18 19 16 19 14 13 16 16 7 19 19 19 19 20 21 23 26 23 23 21 19 19 18 17 15 16 15 11 10 9 9 9 8 8 7 7 7 8 7 6 2 4 1 1 2 1 2 1 3
16 16 20 16 10 13 16 15 13 13 18 18 19 20 22 23 23 22 22 21 20 19 19 19 18 16 13 12 12 11 10 9 9 9 9 8 9 9 9 7 5 6 3 2 4 4 4 3 2
22 17 20 13 7 12 15 15 14 12 17 18 19 22 23 22 22 22 23 22 22 21 20 19 19 18 15 12 11 10 9 10 10 9 9 8 9 8 8 8 5 5 1 2 2 2 1 1 1
23 23 18 16 14 15 14 16 15 14 14 15 19 20 21 22 23 24 24 24 23 22 22 20 19 18 17 15 10 9 9 9 10 10 9 9 9 9 8 8 7 4 5 3 4 4 3 0 2
25 23 19 18 12 13 16 17 21 22 17 18 18 20 22 24 24 23 25 25 25 23 21 21 19 19 17 17 13 13 12 11 11 11 10 9 11 10 9 8 7 8 6 2 4 4 3 4 4
20 16 18 20 17 17 22 11 15 13 17 19 19 21 23 24 25 25 26 26 26 23 22 20 20 19 18 18 16 13 14 12 9 10 10 10 10 11 11 10 7 8 8 6 4 5 6 5 5
13 16 13 15 16 21 23 21 19 17 18 18 19 19 22 23 25 25 24 23 23 22 21 20 20 19 19 19 20 17 16 14 12 11 10 10 10 10 13 12 9 10 8 7 7 6 7 6 4
22 20 11 13 18 19 22 23 18 8 19 20 18 20 22 23 23 24 24 23 23 25 24 21 20 20 20 21 20 20 18 17 15 12 11 10 10 9 10 13 11 10 10 9 8 7 7 8 6
28 24 11 17 15 17 17 22 23 23 20 6 19 17 19 21 21 23 26 24 24 25 24 23 20 20 22 22 20 18 19 15 14 14 13 11 11 10 10 12 13 13 11 10 9 8 8 8 8
26 28 26 12 5 9 14 19 16 13 21 24 23 19 18 21 23 25 26 26 25 24 23 23 22 22 22 24 19 19 19 19 16 16 14 13 11 10 12 14 15 14 12 12 11 9 9 9 9
20 24 22 16 16 19 13 19 13 22 22 21 23 22 20 21 22 23 23 25 24 26 25 25 24 24 24 22 20 18 19 19 18 15 16 15 13 14 12 14 15 14 13 13 13 10 11 11 9
23 19 25 17 17 12 11 12 15 18 17 23 22 22 20 20 20 21 22 23 24 22 23 24 25 24 23 22 21 20 19 21 19 18 17 17 15 14 15 14 15 15 14 14 14 12 12 13 12
28 24 29 14 22 18 15 7 7 6 16 18 19 20 19 19 18 19 20 20 21 23 23 25 25 25 25 21 21 22 20 20 20 19 19 18 17 16 16 15 16 16 16 15 15 16 14 15 15
Wind_Direction
161 168 177 198 245 238 70 87 77 127 141 91 103 85 74 37 20 100 149 152 146 157 154 150 135 128 123 124 123 124 125 126 126 121 122 112 105 98 85 90 87 90 93 89 95 101 105 113 113
171 167 219 264 255 164 86 84 119 105 91 112 114 134 121 79 88 123 131 152 162 155 160 142 136 133 130 127 124 129 129 127 125 122 119 116 105 91 82 84 84 86 96 104 97 97 105 112 121
170 187 254 258 236 55 74 95 102 115 132 147 105 47 60 88 125 120 144 148 158 156 141 124 140 137 134 129 128 129 130 128 125 123 118 105 100 96 90 86 72 80 77 86 93 95 98 96 99
161 203 229 257 80 87 31 100 131 137 123 131 116 89 91 124 128 160 152 154 151 153 145 135 142 138 136 132 133 134 134 131 126 120 106 103 103 95 91 70 79 92 92 92 93 90 85 81 81
247 244 246 247 91 86 76 112 159 148 129 147 158 102 100 121 134 143 148 162 152 148 134 144 142 141 136 138 138 139 137 131 122 114 111 111 102 90 62 51 80 92 89 91 92 88 81 70 78
226 265 241 87 86 83 89 128 145 115 120 107 122 124 119 144 141 153 159 161 155 147 147 141 139 144 143 143 139 139 137 128 122 122 118 111 98 89 75 51 51 75 83 92 90 86 79 70 70
274 257 337 349 66 126 111 148 151 117 136 142 132 122 124 142 152 156 162 160 152 153 147 151 152 149 150 142 142 142 139 130 131 134 128 117 109 100 86 79 62 66 80 95 101 99 85 67 80
263 264 245 129 125 100 125 142 108 141 107 118 134 153 155 152 158 157 159 155 161 159 150 157 155 161 162 153 151 150 142 140 147 150 146 148 154 173 168 207 92 31 96 105 111 107 101 104 95
261 256 187 103 208 114 146 132 123 94 136 158 156 148 143 152 157 158 155 163 164 164 166 165 166 166 172 163 154 165 155 160 165 175 174 203 160 147 170 61 15 73 114 106 94 97 87 159 132
230 276 63 52 33 158 163 156 143 153 154 146 134 114 145 157 163 165 165 166 171 170 174 172 176 166 172 175 153 181 166 185 186 186 169 224 90 81 336 76 88 107 104 136 137 167 210 226 153
206 252 124 113 47 313 161 173 161 156 173 167 154 148 157 164 172 174 173 173 174 174 180 176 180 170 182 178 181 178 181 178 176 190 215 108 260 134 160 130 169 140 180 179 197 196 240 78 353
239 238 261 130 6 311 190 157 178 175 85 159 151 159 163 172 177 179 177 176 177 179 185 181 177 180 195 178 193 185 186 191 208 177 190 199 227 148 299 5 96 206 139 48 129 70 17 297 141
222 226 247 250 253 299 199 190 197 187 130 152 152 166 173 180 180 183 182 178 180 183 185 184 180 186 193 200 195 210 204 193 202 194 181 235 251 221 270 6 300 346 117 40 284 88 72 236 96
192 225 237 244 232 246 220 194 195 189 147 153 164 174 177 186 185 185 188 185 186 187 185 184 189 188 195 200 207 204 213 203 223 210 200 208 259 180 277 282 247 282 55 94 334 7 359 219 130
220 222 223 228 226 221 216 210 204 161 168 164 174 178 183 186 187 190 189 189 189 190 185 189 192 191 197 200 201 210 204 214 216 216 200 222 230 209 272 208 271 318 60 217 206 207 280 249 108
218 226 236 223 207 201 207 214 186 167 180 178 175 180 185 188 189 191 191 192 189 194 191 192 195 192 195 201 201 212 210 219 217 222 215 206 220 239 237 235 260 65 325 304 137 226 238 128 117
204 222 217 188 205 189 203 238 156 173 191 186 183 180 186 188 193 192 194 195 193 195 191 195 197 199 195 201 208 211 208 220 223 222 219 202 229 223 247 249 237 127 169 259 16 271 258 91 177
205 217 231 210 187 203 203 237 158 176 198 194 188 185 187 192 197 193 197 195 197 192 195 198 197 203 196 199 209 211 213 218 222 222 226 221 228 225 227 246 247 259 346 194 143 233 66 25 11
228 221 227 209 212 221 230 231 233 189 197 206 190 193 194 197 193 194 196 196 197 198 196 197 201 196 196 201 201 206 209 209 218 223 224 227 234 232 227 258 195 242 267 30 192 184 160 160 56
231 229 227 228 161 233 233 233 231 213 205 208 197 196 203 193 191 194 194 197 198 198 200 199 204 200 202 202 208 210 209 212 216 214 218 223 221 217 227 228 212 202 290 235 185 209 204 153 76
222 226 229 231 201 230 256 251 233 211 211 211 209 201 202 198 194 191 195 198 197 200 201 200 201 202 203 215 201 203 217 229 211 217 213 211 216 212 216 224 252 206 247 207 185 184 240 141 157
219 216 237 241 222 241 197 253 223 220 205 206 208 201 201 199 196 194 194 198 200 201 200 201 200 202 202 203 202 204 209 207 212 213 215 214 210 218 218 229 218 213 237 255 186 198 250 259 170
231 220 219 235 242 250 248 248 255 195 216 208 210 204 202 200 195 199 198 198 203 200 200 200 200 201 203 197 216 198 217 212 210 219 216 212 210 222 224 227 223 220 224 191 238 183 215 187 285
211 222 222 230 234 239 235 240 242 232 213 221 209 207 201 203 199 199 203 199 203 203 203 200 200 204 203 198 202 206 205 220 211 209 214 222 217 210 221 229 223 221 220 214 206 199 201 228 236
201 195 195 208 217 235 226 235 235 252 233 215 218 204 201 200 202 198 199 201 200 202 202 202 198 201 202 204 205 209 212 207 219 213 211 223 216 215 211 215 215 212 211 212 212 194 204 202 212
196 204 211 211 219 226 215 233 234 233 239 238 235 216 197 200 202 202 198 200 203 203 200 202 196 200 203 205 208 207 210 215 216 214 229 218 227 214 211 201 210 214 206 210 199 201 218 203 210
191 214 217 253 184 271 225 215 241 254 219 223 230 222 206 196 198 204 203 201 199 201 203 199 199 199 201 202 203 206 208 215 216 221 207 226 221 222 208 207 209 211 209 207 197 219 205 209 212
210 203 213 227 243 241 224 232 226 210 215 219 214 212 205 198 199 203 206 206 204 201 201 199 201 200 201 204 204 207 208 210 215 211 216 215 218 218 210 207 209 210 208 204 202 203 202 211 212
199 200 214 226 232 217 235 232 209 229 210 215 211 210 202 197 196 201 204 207 208 206 202 202 201 202 201 202 203 206 207 208 210 214 211 213 213 206 213 203 210 210 207 204 204 216 209 209 215
204 205 202 216 209 240 282 262 113 227 215 215 214 208 211 206 202 202 203 204 204 205 208 204 205 205 206 204 202 203 204 206 208 210 210 207 211 207 204 206 206 208 209 205 208 211 210 209 213